Location: Habighorst
(52.7089°N, 10.2278°E)
Time: 20:58:45
(UTC+00:00)

Meteor 2-19 Rocket - Pass Details

Date: 13 January 2026
Orbit: 935 x 959 km, 82.5° (Epoch: 16 February)

Event Time Altitude Azimuth Distance (km) Brightness Sun altitude
Rises 06:15:15 0° 347° (NNW) 3,621 7.1 -10.1°
Reaches altitude 10° 06:17:46 10° 344° (NNW) 2,669 6.4 -9.7°
Maximum altitude 06:23:45 62° 266° (W) 1,051 4.5 -8.9°
Drops below altitude 10° 06:29:41 10° 187° (S) 2,641 7.0 -8.1°
Sets 06:32:10 0° 184° (S) 3,580 7.8 -7.7°
